Location: Unspecified
(35.7250°N, 0.0000°E)
Time: 11:52:50
(UTC+00:00)

Explorer 7 - Pass Details

Date: 20 August 2020
Orbit: 485 x 679 km, 50.3° (Epoch: 21 September)

Event Time Altitude Azimuth Distance (km) Brightness Sun altitude
Rises 19:29:14 0° 315° (NW) 2,685 11.8 -9.7°
Reaches altitude 10° 19:33:08 10° 353° (N) 1,744 9.8 -10.4°
Maximum altitude 19:34:16 11° 10° (N) 1,668 9.5 -10.7°
Drops below altitude 10° 19:35:24 10° 27° (NNE) 1,719 9.3 -10.9°
Enters shadow 19:38:14 - 58° (ENE) 2,302 9.7 -11.4°
